星链-38045(STARLINK-38045)

导读

目前公开可查的星链卫星相关信息中,暂未检索到NORAD编号为100010、名称为STARLINK-38045的卫星的对应公开数据。现有公开的NORAD卫星编号目前最高仅到67000+号段,尚未进入100000号段;且已披露的星链序列中仅有编号接近的STARLINK-3804,其NORAD ID为52270,2022年4月21日发射,属于SpaceX第一代星链星座,为全球提供低轨宽带互联网接入服务。你可以核实卫星编号或名称的准确性,以便获取更准确的信息。

基本信息
目录编号:
100010
目录名称:
STARLINK-38045
国际标识:
2026-160K
轨道中心:
EARTH
卫星名称:
星链-38045
卫星全名:
星链-38045(STARLINK-38045)
卫星状态:
在轨 (已飞行14 天)
发射日期:
2026-07-14 UTC
国别 :
美国 (US)
星等 :
--
轨道信息
数据来源 国际轨道数据
星历时间: 2026-07-28T03:41:38+0800
1天前
查看轨道信息
半长轴: 6712.407km
偏心率: 0.0003805
轨道倾角: 70.000°
近地点辐角 282.020°
升交点赤经 349.758°
平近点角 78.057°
近地点: 331.715km
远地点: 336.825km
周期: 91.217分钟
每日圈数: 15.786482
详细信息
固有亮度:
5
最大亮度:
2.5
卫星平台:
Starlink V1.0
覆盖范围:
全球
运营商:
太空探索技术公司
运营商所在国:
美国
制造商(研发单位):
太空探索技术公司
制造商所在国:
美国
使用方式:
暂无
卫星简介
Starlink 计划是 SpaceX 推出的全球卫星互联网项目,通过发射低轨道卫星,为全球尤其是偏远地区提供高速、低延迟的互联网服务。自 2019 年起,Starlink 已部署数千颗卫星,旨在缩小全球数字鸿沟,推动互联网普及。该项目还为军事、航空等行业提供通信支持,带来广泛经济效益。
2D轨道图
3D轨道图
轨道高度分析图
轨道倾角分析图
轨道综合分析图
查看轨道综合分析图